PDT,Max TemperatureF,Mean TemperatureF,Min TemperatureF,Max Dew PointF,MeanDew PointF,Min DewpointF,Max Humidity, Mean Humidity, Min Humidity, Max Sea Level PressureIn, Mean Sea Level PressureIn, Min Sea Level PressureIn, Max VisibilityMiles, Mean VisibilityMiles, Min VisibilityMiles, Max Wind SpeedMPH, Mean Wind SpeedMPH, Max Gust SpeedMPH,PrecipitationIn, CloudCover, Events, WindDirDegrees
2013-4-1,63,55,48,47,45,40,87,73,56,30.17,30.08,29.99,10,10,10,12,6,20,0.00,5,,178
2013-4-2,57,54,50,46,45,43,82,72,64,30.21,30.19,30.16,10,10,10,8,5,,0.00,8,,168
2013-4-3,63,55,48,45,43,41,83,68,46,30.20,30.12,29.96,10,10,10,6,2,,0.00,5,,331
2013-4-4,59,56,52,53,48,43,90,80,69,29.94,29.75,29.66,10,8,2,15,3,24,0.41,7,Rain,178
2013-4-5,57,54,50,49,48,46,89,80,65,29.88,29.82,29.74,10,9,3,14,11,26,0.44,8,Rain,178
2013-4-6,54,50,46,47,43,40,86,78,69,29.95,29.85,29.71,10,10,6,17,10,24,0.44,7,Rain,171
2013-4-7,48,44,42,42,40,37,87,82,80,29.90,29.70,29.51,10,9,4,12,6,,0.96,8,Rain,105
2013-4-8,57,50,44,43,41,39,89,73,55,30.28,30.12,29.92,10,10,9,8,6,,0.04,6,Rain,164
2013-4-9,55,49,44,41,40,38,85,68,57,30.36,30.30,30.19,10,10,10,8,6,,0.00,6,,157
2013-4-10,61,54,48,49,44,39,88,69,51,30.27,30.09,29.96,10,8,2,15,10,25,0.15,7,Rain,176
2013-4-11,55,50,46,43,38,33,87,68,47,30.32,30.27,30.20,10,9,3,10,7,,0.09,7,Rain,158
2013-4-12,48,44,43,43,38,34,93,77,63,30.18,29.91,29.70,10,9,4,15,6,33,0.18,7,Rain,168
2013-4-13,53,45,39,41,36,31,86,73,58,30.01,29.90,29.78,10,10,6,16,9,24,0.31,7,Rain,177
2013-4-14,55,46,39,39,36,29,93,71,40,30.03,29.99,29.93,10,10,6,8,4,,0.06,7,Rain,155
2013-4-15,55,48,41,39,37,33,82,70,42,30.19,30.05,29.96,10,10,10,10,4,18,0.00,6,,327
2013-4-16,57,47,39,41,37,33,86,69,44,30.40,30.32,30.21,10,10,2,15,3,22,0.07,4,Rain,82
2013-4-17,60,49,39,40,36,32,79,61,36,30.47,30.43,30.40,10,10,10,12,6,,0.00,5,,173
2013-4-18,53,49,46,47,41,36,86,74,63,30.47,30.40,30.22,10,10,10,14,8,21,0.18,8,Rain,168
2013-4-19,55,52,50,52,48,45,89,85,80,30.21,30.13,30.07,10,9,3,13,8,18,0.67,8,Rain,167
2013-4-20,57,52,48,45,43,41,83,72,59,30.28,30.25,30.22,10,10,8,12,7,20,0.01,8,Rain,182
2013-4-21,55,50,46,45,40,36,87,70,51,30.38,30.27,30.24,10,10,5,10,6,18,0.03,7,Rain,231
2013-4-22,61,51,41,40,32,15,86,54,18,30.53,30.47,30.40,10,10,10,13,3,20,0.00,1,,325
2013-4-23,64,50,37,37,32,22,79,51,22,30.43,30.33,30.25,10,10,10,10,3,17,0.00,2,,328
2013-4-24,70,54,39,42,35,27,83,49,21,30.33,30.22,30.07,10,10,10,8,2,,0.00,0,,306
2013-4-25,73,60,46,43,37,32,71,46,26,30.15,30.08,30.05,10,10,10,6,1,,0.00,0,,341
2013-4-26,69,58,48,49,45,42,87,66,43,30.26,30.22,30.17,10,10,10,8,2,,0.00,3,,214
2013-4-27,57,55,53,47,42,35,77,63,47,30.22,30.20,30.17,10,10,10,16,9,25,0.00,6,Rain,176
2013-4-28,61,54,48,47,43,37,83,69,47,30.22,30.15,29.97,10,10,8,16,6,24,0.08,7,Rain,194
2013-4-29,57,50,45,46,40,32,87,71,40,30.18,30.06,29.92,10,9,2,13,7,16,0.15,7,Rain,108
2013-4-30,57,48,41,35,32,28,79,55,35,30.45,30.32,30.19,10,10,10,8,6,,0.00,4,,76